Tracking 19644 objects as of 24-Apr-2019
HD Live streaming from Space Station
objects crossing your sky now

DELTA 2 R/B(1)

Track DELTA 2 R/B(1) now!
10-day predictions


NORAD ID: 27665
Int'l Code: 2003-005C
Perigee: 796.9 km
Apogee: 810.9 km
Inclination: 39.6 °
Period: 100.8 minutes
Semi major axis: 7174 km
RCS: 9.691 m2 (large)
Launch date: January 29, 2003
Source: United States (US)
Launch site: AIR FORCE EASTERN TEST RANGE (AFETR)

Note: This is a ROCKET BODY
aabbcc
Your satellite tracking list
Your tracking list is empty




NASA's NSSDC Master Catalog

Two Line Element Set (TLE):
1 27665U 03005C   19113.52336069 -.00000118  00000-0 -13056-4 0  9994
2 27665  39.5756 271.4228 0009732 331.0158 100.9342 14.28498837847520
Source of the keplerian elements: AFSPC